Wind_Speed
1 1 3 5 7 8 10 11 13 14 16 17 18 20 21 23 25 27 29 30 30 31 31 32 32 32 34 35 35 37 38 38 42 50 46 49 50 51 51 48 60 49 45 45 46
4 2 3 3 3 4 5 7 9 11 12 14 15 17 18 20 21 24 26 28 29 31 32 32 33 33 35 36 37 38 40 36 36 44 50 52 55 56 48 50 64 49 49 47 49
8 7 5 3 2 3 5 7 9 11 13 14 15 17 19 21 23 24 26 27 29 30 31 32 32 33 35 36 37 37 38 38 40 42 43 54 57 52 53 50 41 68 57 51 51
6 6 4 3 2 2 3 4 6 7 9 10 12 15 18 21 24 25 27 29 30 30 31 32 32 33 34 34 38 38 39 41 43 43 44 45 55 56 51 52 51 48 69 57 58
4 3 1 1 1 2 4 4 6 7 9 10 12 15 18 19 21 23 26 29 31 32 32 33 33 33 33 34 35 35 37 38 43 46 47 47 50 57 53 52 53 47 58 62 60
5 3 3 5 7 8 8 9 10 10 11 11 12 14 16 18 20 22 23 25 27 29 30 32 32 33 33 32 32 36 33 35 41 45 50 51 47 54 55 56 52 37 47 65 64
4 7 8 9 11 12 12 14 14 14 14 13 14 14 15 16 17 19 20 22 25 28 30 29 29 32 32 33 33 32 30 32 35 40 47 51 51 49 54 58 51 48 46 62 64
14 8 8 9 11 13 16 17 18 18 17 16 15 16 15 16 18 18 18 21 24 27 30 31 30 31 31 33 33 32 31 31 33 34 38 44 46 51 59 58 53 47 42 40 67
16 14 12 9 7 8 9 11 13 16 19 19 19 20 20 20 20 20 19 20 20 23 27 30 32 31 31 32 33 34 32 36 34 30 36 36 41 50 53 54 52 50 48 48 56
20 17 16 13 11 11 10 11 11 11 14 17 20 21 22 21 22 21 21 21 21 21 23 26 29 32 33 31 30 37 32 37 34 38 34 36 39 44 50 52 52 51 50 48 48
26 20 18 15 14 13 12 11 11 12 12 14 16 18 19 21 22 23 23 23 23 22 22 23 25 28 34 35 35 35 36 36 37 39 39 37 37 39 44 49 51 51 47 44 43
26 26 24 20 18 16 13 12 11 10 11 12 13 15 16 17 17 16 17 18 18 19 19 21 23 28 29 31 33 36 38 37 40 38 40 39 40 39 39 42 45 46 45 42 45
23 24 24 23 22 20 18 15 12 10 10 12 12 13 13 15 17 17 18 19 20 22 23 22 26 25 28 29 30 32 35 39 41 41 40 42 39 40 40 41 43 44 44 44 45
20 20 21 21 21 21 20 19 17 17 16 12 11 11 13 14 17 18 18 20 21 23 24 25 27 27 27 27 30 31 35 35 37 38 38 42 41 42 38 41 43 44 44 43 46
20 18 18 19 19 20 20 20 20 20 19 18 17 17 15 14 16 17 19 21 22 23 22 25 28 29 29 27 32 31 35 34 35 35 35 32 39 36 37 37 40 41 44 46 48
20 19 18 19 18 19 20 20 21 21 19 19 19 19 19 18 18 19 20 21 20 23 25 20 29 30 29 30 31 33 33 33 33 33 33 28 30 29 36 27 35 38 39 43 46
22 21 20 20 20 19 19 20 21 21 22 22 21 20 21 22 21 20 21 21 21 24 22 23 24 27 29 31 32 32 33 29 23 24 22 35 27 29 32 28 32 37 38 40 43
22 23 22 21 21 21 21 21 20 22 23 23 24 23 22 24 23 23 23 22 21 24 23 24 22 27 26 29 30 27 32 29 25 21 20 32 32 25 25 30 34 39 41 42 44
22 23 24 24 23 23 22 23 23 23 24 25 25 25 25 26 27 27 26 24 26 23 25 26 24 26 27 29 31 31 37 35 37 36 35 32 27 25 24 30 35 38 41 43 45
24 23 25 25 25 25 24 25 26 26 28 27 27 26 25 28 28 30 29 27 30 27 27 29 29 27 23 26 29 33 32 34 31 33 32 27 24 18 20 22 28 34 42 45 49
25 25 25 26 27 26 26 27 27 31 32 30 28 29 25 26 28 30 30 32 31 33 32 31 31 26 27 24 27 33 32 34 32 34 31 28 17 27 20 23 30 34 37 41 44
27 28 27 27 29 30 31 31 32 33 34 33 31 30 28 27 27 28 29 33 34 35 35 36 34 31 29 27 29 30 33 32 33 29 33 37 32 25 25 27 28 31 31 36 40
30 31 31 30 29 28 31 33 31 31 31 33 30 30 29 26 31 27 28 32 35 36 37 38 36 35 32 29 27 31 32 33 37 36 38 37 34 29 26 30 32 34 36 37 38
29 30 30 30 29 28 27 27 31 29 29 30 28 30 32 29 29 31 34 37 36 38 39 39 38 37 33 27 30 30 33 35 38 42 38 40 35 28 27 34 35 33 36 38 39
31 29 30 33 32 29 27 28 29 28 28 30 28 29 32 33 34 36 38 41 42 43 43 43 41 35 34 34 29 32 33 34 36 40 40 33 35 29 33 36 33 33 33 34 34
33 31 29 32 33 32 32 29 30 29 30 30 30 32 34 35 39 40 43 43 46 42 40 39 37 33 32 32 28 28 26 27 34 34 37 36 38 27 36 37 35 34 34 32 33
35 34 30 32 32 31 32 32 31 29 27 32 32 33 36 38 40 40 43 44 43 37 33 31 29 28 26 26 28 30 20 26 29 31 34 38 36 37 39 38 40 38 35 34 36
Wind_Direction
194 186 198 223 228 231 232 232 234 237 240 244 247 250 251 253 253 253 253 252 251 251 251 250 247 245 246 248 253 256 256 257 255 253 254 253 254 254 250 236 227 226 223 225 214
92 132 135 145 172 202 219 229 235 239 244 249 251 253 254 254 253 253 254 255 254 253 252 251 250 248 248 249 250 252 259 264 263 255 245 250 251 253 248 245 224 229 222 222 214
83 97 110 129 169 215 236 245 251 254 257 259 260 261 260 258 257 256 256 255 254 254 253 252 253 252 252 251 251 251 256 261 260 259 250 243 250 251 253 248 239 234 228 218 212
77 82 90 105 127 177 225 240 245 249 256 262 266 268 268 266 262 260 259 257 255 253 251 251 251 251 252 253 253 254 254 252 260 259 255 247 244 248 251 249 241 238 226 217 212
40 53 7 335 298 237 231 243 258 265 266 265 270 273 272 270 269 266 262 259 257 255 253 252 252 253 253 254 255 256 255 256 254 255 256 250 245 245 247 250 252 243 237 215 212
14 314 296 287 285 285 276 271 269 270 271 270 273 278 279 278 276 274 272 268 262 257 256 254 253 254 255 256 257 258 260 258 251 252 250 253 248 242 242 249 249 250 243 219 212
7 349 327 301 288 284 280 279 273 269 269 275 277 275 279 283 286 284 279 272 265 258 256 256 255 254 255 255 256 259 260 259 256 251 251 252 250 247 245 244 248 244 231 215 215
49 38 3 331 317 308 302 293 288 277 271 276 280 282 285 289 293 294 292 286 277 270 262 258 256 256 255 257 257 258 260 263 261 259 256 253 254 243 243 242 245 249 251 245 215
35 31 27 17 347 328 317 306 300 283 279 283 287 289 289 291 293 292 294 294 288 279 272 267 262 261 260 259 260 258 258 259 263 263 259 257 253 245 244 243 249 251 252 247 235
49 45 40 30 19 9 1 351 339 309 285 281 284 287 289 288 288 286 287 289 290 286 279 272 268 263 260 259 259 259 260 261 258 262 256 254 251 247 245 245 249 253 257 256 247
37 38 36 36 35 30 20 7 355 343 327 314 306 300 298 295 292 289 287 284 282 280 278 275 272 269 263 260 257 258 260 258 260 258 261 256 255 251 248 248 249 252 252 254 254
26 27 30 27 22 21 17 6 357 350 334 327 322 312 305 301 297 293 290 290 287 284 280 278 272 268 267 266 261 258 258 258 258 259 258 258 256 254 252 251 249 249 247 245 251
13 16 18 19 16 14 11 3 354 349 339 326 318 315 312 306 303 297 296 294 292 289 286 281 277 273 272 269 265 262 260 259 259 260 261 260 258 256 255 253 252 250 247 246 241
1 4 5 7 8 7 6 2 357 349 344 335 328 319 315 309 306 302 297 295 292 290 289 285 281 275 270 267 265 261 260 259 260 260 259 261 259 258 253 254 255 254 253 249 245
346 349 352 356 356 355 355 356 354 348 346 339 335 328 321 314 311 307 303 300 296 294 290 289 284 277 273 265 263 262 261 261 261 260 259 255 262 261 256 254 254 255 256 253 250
331 333 335 337 342 345 344 345 343 341 340 337 330 327 321 317 313 310 307 306 299 297 299 287 282 282 276 269 265 265 266 265 268 269 265 267 257 264 264 255 256 255 251 254 254
323 323 324 325 325 331 334 335 334 333 333 331 326 321 317 314 311 306 304 301 301 298 294 287 281 279 276 271 267 268 270 273 269 270 274 266 263 257 273 269 260 258 259 258 253
319 319 318 317 317 318 319 324 325 326 324 324 323 319 312 309 307 306 305 299 295 294 289 286 274 281 274 267 262 266 264 265 264 255 253 270 267 275 270 271 263 258 257 257 258
322 319 317 315 314 313 311 312 314 317 320 318 317 317 311 305 304 305 302 302 296 293 289 285 282 273 274 268 261 260 263 262 262 261 263 260 268 277 281 273 274 271 268 264 258
320 320 317 315 313 310 308 307 306 308 313 314 311 312 307 303 302 299 298 299 294 294 288 285 285 280 279 270 265 255 260 269 262 258 258 266 266 274 295 296 286 279 275 273 272
321 320 317 315 315 313 311 309 306 305 308 308 308 308 303 298 297 293 296 293 293 291 289 286 285 281 283 277 267 270 261 264 255 255 259 260 259 256 285 289 291 292 287 283 282
320 319 319 320 317 313 311 310 310 308 309 309 307 305 306 306 298 292 290 288 288 287 288 285 285 282 282 279 273 265 264 265 258 258 263 254 254 267 283 293 293 290 289 287 285
315 317 316 319 320 317 314 310 310 308 307 309 307 304 307 309 301 296 291 286 283 284 284 284 284 283 285 284 269 270 259 258 258 254 250 258 256 276 290 289 293 294 293 292 294
310 313 314 315 318 317 315 312 311 308 307 307 308 305 308 310 302 302 295 291 286 283 281 279 279 276 276 270 268 269 263 261 256 253 255 255 263 270 277 282 287 292 293 292 294
307 310 313 315 319 321 319 315 314 312 311 310 308 304 310 312 306 303 298 292 287 283 281 279 278 274 272 273 269 266 264 259 261 255 256 259 264 274 273 275 282 288 286 290 287
304 306 310 311 318 321 320 318 315 312 313 310 309 311 315 313 311 309 304 299 291 287 282 278 280 273 273 274 277 271 271 270 264 261 259 267 263 276 273 278 282 288 287 283 279
300 303 309 310 313 317 317 315 315 312 311 310 312 316 316 317 312 310 304 298 295 292 283 278 275 272 274 282 282 281 275 271 258 256 261 264 276 279 278 279 281 289 285 279 277
Height
5753 5755 5757 5759 5761 5763 5765 5767 5770 5772 5774 5776 5777 5779 5780 5781 5783 5784 5786 5788 5789 5791 5792 5793 5796 5798 5798 5799 5801 5802 5802 5804 5809 5810 5816 5815 5815 5815 5821 5826 5831 5835 5843 5848 5853
5753 5755 5757 5758 5760 5762 5764 5766 5768 5770 5771 5772 5773 5774 5775 5776 5778 5778 5780 5781 5782 5784 5785 5786 5788 5790 5791 5792 5794 5796 5796 5800 5803 5802 5804 5805 5804 5804 5813 5817 5823 5824 5833 5838 5844
5754 5756 5757 5759 5760 5761 5763 5764 5766 5767 5768 5769 5770 5771 5771 5771 5772 5773 5774 5775 5775 5777 5778 5779 5780 5781 5782 5783 5786 5789 5790 5793 5792 5792 5794 5796 5794 5800 5803 5807 5816 5818 5818 5828 5836
5756 5757 5758 5759 5760 5761 5762 5763 5764 5765 5765 5766 5766 5766 5766 5766 5768 5767 5768 5768 5769 5770 5772 5772 5773 5774 5775 5776 5776 5780 5782 5783 5781 5782 5784 5788 5789 5788 5793 5798 5796 5800 5804 5816 5822
5756 5757 5758 5759 5760 5760 5761 5761 5761 5762 5762 5763 5762 5762 5762 5762 5761 5761 5761 5761 5762 5763 5765 5766 5766 5767 5767 5769 5769 5770 5771 5772 5773 5772 5774 5776 5779 5782 5784 5785 5785 5797 5799 5803 5810
5757 5757 5758 5758 5759 5759 5759 5760 5760 5759 5759 5759 5759 5758 5758 5757 5755 5754 5754 5754 5755 5756 5757 5758 5758 5759 5759 5760 5761 5760 5762 5763 5763 5763 5763 5765 5770 5772 5778 5772 5781 5792 5794 5795 5798
5758 5758 5757 5757 5757 5757 5757 5757 5757 5757 5756 5756 5755 5754 5754 5753 5751 5750 5749 5748 5748 5749 5750 5751 5751 5752 5752 5751 5753 5752 5754 5753 5754 5753 5753 5756 5759 5764 5765 5766 5773 5778 5779 5778 5791
5758 5757 5756 5756 5756 5755 5755 5754 5753 5753 5752 5752 5752 5751 5750 5748 5747 5745 5744 5743 5742 5742 5743 5743 5744 5744 5745 5746 5745 5745 5746 5745 5743 5744 5745 5747 5751 5752 5749 5759 5763 5768 5771 5774 5779
5759 5758 5756 5754 5753 5752 5751 5750 5749 5748 5749 5748 5748 5746 5745 5743 5742 5740 5739 5738 5737 5736 5735 5735 5736 5737 5738 5738 5738 5738 5738 5735 5736 5737 5737 5740 5741 5743 5744 5751 5754 5758 5761 5764 5768
5760 5759 5757 5754 5753 5751 5749 5748 5747 5745 5744 5743 5742 5742 5740 5738 5736 5735 5734 5732 5731 5729 5728 5728 5728 5728 5729 5729 5731 5728 5731 5729 5730 5729 5730 5731 5732 5736 5737 5739 5744 5748 5751 5752 5755
5761 5759 5757 5755 5752 5751 5748 5746 5746 5744 5741 5740 5738 5736 5733 5732 5731 5729 5727 5726 5724 5723 5722 5721 5720 5720 5719 5720 5721 5721 5721 5721 5721 5721 5720 5722 5723 5726 5727 5729 5733 5736 5739 5740 5743
5762 5759 5756 5754 5751 5749 5747 5745 5743 5742 5739 5736 5734 5732 5730 5728 5725 5723 5722 5721 5719 5717 5717 5716 5714 5712 5711 5711 5712 5712 5711 5712 5711 5711 5711 5712 5714 5717 5719 5720 5721 5724 5728 5730 5729
5763 5760 5756 5753 5750 5748 5745 5742 5740 5738 5736 5733 5730 5727 5725 5723 5721 5719 5718 5715 5713 5711 5710 5708 5706 5705 5704 5703 5703 5703 5702 5701 5701 5702 5704 5703 5706 5707 5710 5710 5711 5713 5715 5718 5721
5762 5759 5755 5752 5751 5746 5743 5740 5737 5734 5732 5730 5727 5724 5721 5718 5716 5714 5712 5711 5708 5706 5704 5702 5699 5697 5696 5695 5694 5693 5691 5692 5692 5693 5695 5693 5696 5696 5700 5700 5701 5701 5702 5705 5707
5761 5758 5754 5749 5747 5744 5742 5738 5734 5731 5729 5727 5722 5719 5717 5715 5711 5709 5707 5704 5701 5699 5698 5695 5691 5689 5688 5687 5684 5686 5682 5683 5683 5684 5684 5688 5685 5688 5689 5690 5689 5690 5690 5692 5695
5759 5755 5752 5749 5744 5741 5738 5735 5732 5730 5725 5722 5719 5715 5712 5709 5707 5703 5700 5698 5696 5692 5689 5688 5683 5681 5681 5679 5677 5676 5676 5676 5676 5675 5675 5678 5678 5680 5676 5681 5678 5677 5679 5681 5686
5755 5752 5749 5745 5742 5738 5734 5731 5729 5725 5722 5719 5715 5711 5708 5704 5702 5699 5696 5692 5689 5686 5683 5680 5677 5674 5673 5671 5670 5669 5669 5669 5672 5671 5670 5664 5669 5670 5667 5669 5668 5668 5669 5672 5676
5750 5747 5744 5741 5737 5733 5730 5727 5724 5720 5716 5713 5709 5705 5702 5699 5696 5693 5690 5687 5684 5680 5677 5674 5672 5668 5666 5665 5665 5664 5661 5662 5661 5666 5668 5658 5660 5660 5660 5656 5657 5658 5660 5662 5663
5746 5742 5739 5735 5732 5728 5726 5722 5719 5715 5712 5707 5703 5699 5695 5692 5689 5685 5683 5680 5676 5674 5670 5666 5664 5661 5658 5656 5657 5656 5652 5652 5651 5651 5651 5654 5655 5653 5649 5646 5644 5645 5647 5651 5655
5741 5738 5734 5730 5726 5722 5720 5716 5712 5709 5704 5701 5696 5693 5688 5684 5681 5677 5675 5673 5668 5666 5662 5658 5655 5653 5651 5648 5647 5645 5646 5643 5643 5643 5643 5646 5647 5647 5640 5637 5635 5634 5634 5636 5638
5734 5730 5727 5724 5721 5717 5713 5709 5705 5701 5697 5694 5689 5685 5681 5677 5673 5670 5667 5663 5660 5656 5653 5649 5646 5647 5642 5641 5638 5634 5635 5634 5635 5634 5634 5637 5643 5636 5634 5631 5628 5628 5628 5627 5626
5728 5724 5720 5717 5714 5710 5705 5701 5699 5692 5687 5684 5681 5676 5672 5667 5665 5661 5659 5653 5650 5646 5643 5639 5636 5635 5634 5631 5628 5627 5626 5625 5624 5628 5625 5625 5628 5628 5626 5623 5621 5620 5619 5617 5615
5722 5718 5713 5710 5707 5702 5698 5692 5688 5685 5680 5675 5672 5668 5664 5660 5654 5652 5649 5644 5640 5636 5632 5628 5626 5624 5624 5622 5620 5617 5616 5616 5614 5616 5616 5617 5620 5619 5617 5613 5611 5610 5608 5606 5604
5716 5712 5708 5703 5699 5695 5691 5687 5680 5677 5673 5667 5664 5659 5655 5651 5647 5642 5637 5632 5629 5625 5620 5616 5615 5614 5615 5614 5610 5608 5607 5606 5605 5604 5607 5606 5609 5612 5610 5605 5602 5599 5597 5594 5592
5709 5706 5700 5695 5691 5688 5684 5678 5673 5669 5664 5659 5657 5652 5646 5642 5637 5632 5626 5620 5614 5610 5606 5604 5603 5603 5603 5600 5599 5597 5597 5597 5595 5595 5595 5600 5599 5602 5599 5595 5595 5591 5589 5586 5583
5700 5697 5695 5688 5683 5679 5674 5671 5666 5661 5656 5651 5648 5643 5638 5633 5627 5621 5613 5608 5600 5597 5592 5590 5591 5590 5592 5590 5588 5587 5589 5589 5585 5587 5586 5587 5585 5593 5586 5585 5583 5581 5579 5576 5574
5692 5688 5684 5680 5675 5672 5667 5662 5657 5654 5651 5643 5639 5635 5629 5624 5616 5609 5601 5593 5587 5584 5580 5580 5581 5581 5582 5581 5580 5580 5581 5578 5578 5578 5578 5577 5579 5579 5577 5576 5573 5571 5568 5565 5563